Regional Weather Roundup
Issued by NWS

Home | Current Version | Previous Version | Text Only | Print | Product List | Glossary On
Versions: 1 2 3 4 5 6 7 8 9 10 11 12 13 14 15 16 17 18 19 20 21 22 23 24 25 26 27 28 29 30 31 32 33 34 35 36 37 38 39 40 41 42 43 44 45 46 47 48 49 50
000
ASUS42 KKEY 100710
RWRKEY

FLORIDA REGIONAL WEATHER ROUNDUP FOR THE FLORIDA KEYS
NATIONAL WEATHER SERVICE KEY WEST FLORIDA
300 AM EDT THU JUL 10 2014

...SOUTH FLORIDA AND THE KEYS...

CITY           SKY/WX    TMP DP  RH WIND       PRES   REMARKS
FORT MYERS     PTCLDY    75  73  93 CALM      30.07F
SW REGIONAL AP PTCLDY    73  71  93 E3        30.07F
NAPLES         PTCLDY    77  75  93 E3        30.06F
MIAMI          CLEAR     78  74  87 E5        30.08F
WEST KENDALL   CLEAR     75  73  93 E5        30.08F
HOMESTEAD      CLEAR     74  55  51 CALM      30.08F
MARATHON       PTCLDY    83  73  72 E7        30.06F
BOCA CHICA NAS PTCLDY    82  73  74 E9        30.06F
KEY WEST INTL  PTCLDY    84  73  69 SE13      30.06F HX  90

...INTERNATIONAL WEATHER...

CITY           SKY/WX    TMP DP  RH WIND       PRES   REMARKS
NASSAU BAHAMAS NOT AVBL
CANCUN MEXICO  PTCLDY    81  77  89 CALM      30.04F
COZUMEL MEXICO CLEAR     73  73 100 CALM      30.04F

ADJACENT COASTAL WATERS...

STATION/POSITION TIME  SKY/WX   TEMP    WIND        PRES    WAVE
                                AIR SEA DIR/SP/G            HT/PER
                 (UTC)          (F)     (DEG/KT/KT) (MB)    (FT/S)
PULASKI SHOAL LI 0700            84     130/  9/ 10 1017.6F
SAND KEY         0700            83     110/ 14/ 15 1017.8F
SOMBRERO KEY     0700            83     100/  9/ 10 1018.6F
LONG KEY         0700            83 87  120/ 11/ 12 1018.8F
MOLASSES REEF    0700            82 85  130/ 10/ 11 1018.0F
FOWEY ROCKS      0700            82 84  120/ 11/ 12 1018.7F
Buoy 42080       NOT AVBL

$$


USA.gov is the U.S. government's official web portal to all federal, state and local government web resources and services.